Tracking 19254 objects as of 18-Oct-2018
HD Live streaming from Space Station
objects crossing your sky now

HISPASAT 1A

Track HISPASAT 1A now!
HISPASAT 1A is classified as:


NORAD ID: 22116
Int'l Code: 1992-060A
Perigee: 36,025.5 km
Apogee: 36,103.6 km
Inclination: 12.2 °
Period: 1,450.0 minutes
Semi major axis: 42435 km
RCS: 7.143 m2 (large)
Launch date: September 10, 1992
Source: Spain (SPN)
Launch site: FRENCH GUIANA (FRGUI)
aabbcc
Your satellite tracking list
Your tracking list is empty




NASA's NSSDC Master Catalog

Two Line Element Set (TLE):
1 22116U 92060A   18291.31744094 -.00000031  00000-0  00000+0 0  9996
2 22116  12.1720  30.8693 0009196 236.1908 136.5953  0.99313554 91696
Source of the keplerian elements: AFSPC